HVN988 VVTS-VVCR

Flight info

Callsign HVN988
Flight time 0h 39m
Altitude 27000
Route BIXEX5C BIXEX W15 BANKE BANKE1A
Aircraft A35K/H-SDE2E3GHIJ3J4J5LM1ORWXY/LB1D1

Departure

Time 2026-05-07 13:06
Airport Tan Son Nhat International Airport (VVTS)

Arrival

Time 2026-05-07 13:45
Airport Cam Ranh International Airport / Cam Ranh Air Base (VVCR)
Time Latitude Longitude Altitude Speed Heading
2026-05-07 12:34 10.81784 106.66437 43 ft 0 kts 159°
2026-05-07 12:54 10.81795 106.66433 43 ft 3 kts 159°
2026-05-07 12:55 10.81813 106.66426 43 ft 3 kts 159°
2026-05-07 12:55 10.81831 106.66419 41 ft 3 kts 145°
2026-05-07 12:55 10.81846 106.66404 39 ft 3 kts 108°
2026-05-07 12:55 10.81848 106.66383 38 ft 3 kts 70°
2026-05-07 12:56 10.81846 106.66378 38 ft 0 kts 67°
2026-05-07 12:57 10.81847 106.66380 38 ft 1 kts 68°
2026-05-07 12:58 10.81852 106.66393 41 ft 3 kts 69°
2026-05-07 12:58 10.81858 106.66409 40 ft 0 kts 71°
2026-05-07 13:01 10.81858 106.66411 43 ft 1 kts 71°
2026-05-07 13:01 10.81866 106.66431 43 ft 5 kts 71°
2026-05-07 13:01 10.81881 106.66476 43 ft 8 kts 69°
2026-05-07 13:02 10.81912 106.66537 43 ft 11 kts 57°
2026-05-07 13:02 10.81950 106.66614 43 ft 13 kts 66°
2026-05-07 13:02 10.81986 106.66707 43 ft 15 kts 69°
2026-05-07 13:02 10.82029 106.66816 43 ft 18 kts 68°
2026-05-07 13:03 10.82086 106.66930 42 ft 14 kts 38°
2026-05-07 13:03 10.82173 106.66985 41 ft 15 kts 37°
2026-05-07 13:03 10.82253 106.67010 41 ft 9 kts 341°
2026-05-07 13:03 10.82261 106.67007 41 ft 0 kts 340°
2026-05-07 13:04 10.82268 106.67004 41 ft 3 kts 339°
2026-05-07 13:04 10.82303 106.66988 41 ft 7 kts 330°
2026-05-07 13:04 10.82339 106.66948 40 ft 8 kts 301°
2026-05-07 13:04 10.82348 106.66892 40 ft 9 kts 263°
2026-05-07 13:05 10.82324 106.66826 39 ft 14 kts 249°
2026-05-07 13:05 10.82222 106.66564 39 ft 74 kts 248°
2026-05-07 13:05 10.81942 106.65834 43 ft 145 kts 248°
2026-05-07 13:05 10.81522 106.64742 460 ft 169 kts 247°
2026-05-07 13:06 10.81112 106.63637 1206 ft 178 kts 246°
2026-05-07 13:06 10.80628 106.62339 1543 ft 215 kts 246°
2026-05-07 13:06 10.80051 106.60807 2043 ft 242 kts 246°
2026-05-07 13:06 10.79402 106.59221 3080 ft 240 kts 237°
2026-05-07 13:07 10.78173 106.58129 4071 ft 239 kts 201°
2026-05-07 13:07 10.76491 106.57949 4690 ft 256 kts 167°
2026-05-07 13:07 10.74713 106.58598 4971 ft 290 kts 154°
2026-05-07 13:07 10.73024 106.59384 5000 ft 327 kts 154°
2026-05-07 13:08 10.70812 106.60363 5000 ft 366 kts 156°
2026-05-07 13:08 10.68351 106.61381 4992 ft 389 kts 158°
2026-05-07 13:08 10.65951 106.62432 4983 ft 361 kts 148°
2026-05-07 13:08 10.64182 106.64065 4988 ft 332 kts 123°
2026-05-07 13:09 10.63362 106.66136 4989 ft 306 kts 96°
2026-05-07 13:09 10.63614 106.68173 4986 ft 282 kts 66°
2026-05-07 13:09 10.64677 106.69768 4988 ft 269 kts 51°
2026-05-07 13:09 10.65806 106.71280 4993 ft 268 kts 56°
2026-05-07 13:10 10.66777 106.72892 4993 ft 267 kts 62°
2026-05-07 13:10 10.67620 106.74573 4991 ft 267 kts 65°
2026-05-07 13:10 10.68382 106.76292 4993 ft 267 kts 67°
2026-05-07 13:10 10.69102 106.78037 4995 ft 267 kts 68°
2026-05-07 13:11 10.69797 106.79790 4993 ft 267 kts 69°
2026-05-07 13:11 10.70478 106.81550 4989 ft 268 kts 69°
2026-05-07 13:11 10.71144 106.83319 4993 ft 268 kts 70°
2026-05-07 13:11 10.71523 106.85166 4993 ft 267 kts 86°
2026-05-07 13:12 10.71572 106.87050 4992 ft 267 kts 90°
2026-05-07 13:12 10.71563 106.88944 4991 ft 268 kts 90°
2026-05-07 13:12 10.71554 106.90831 4990 ft 267 kts 89°
2026-05-07 13:12 10.71549 106.92716 4993 ft 267 kts 89°
2026-05-07 13:13 10.71546 106.94602 4990 ft 267 kts 90°
2026-05-07 13:13 10.71545 106.96491 4994 ft 267 kts 89°
2026-05-07 13:13 10.71544 106.98379 4993 ft 267 kts 90°
2026-05-07 13:13 10.71544 107.00266 5015 ft 267 kts 90°
2026-05-07 13:14 10.71543 107.02165 5333 ft 270 kts 89°
2026-05-07 13:14 10.71542 107.04055 6100 ft 271 kts 89°
2026-05-07 13:14 10.71541 107.05973 6925 ft 272 kts 89°
2026-05-07 13:14 10.71540 107.07899 7721 ft 274 kts 89°
2026-05-07 13:15 10.71541 107.09849 8492 ft 277 kts 89°
2026-05-07 13:15 10.71540 107.11819 9283 ft 281 kts 89°
2026-05-07 13:15 10.71540 107.13814 10048 ft 284 kts 89°
2026-05-07 13:15 10.71540 107.15864 10495 ft 299 kts 89°
2026-05-07 13:16 10.71540 107.18042 10797 ft 317 kts 89°
2026-05-07 13:16 10.71539 107.20347 11089 ft 334 kts 89°
2026-05-07 13:16 10.71537 107.22771 11368 ft 350 kts 89°
2026-05-07 13:16 10.71535 107.25285 11739 ft 360 kts 90°
2026-05-07 13:17 10.71575 107.27848 12243 ft 365 kts 86°
2026-05-07 13:17 10.71984 107.30406 12774 ft 369 kts 75°
2026-05-07 13:17 10.72952 107.32834 13324 ft 374 kts 62°
2026-05-07 13:17 10.74471 107.34994 13809 ft 379 kts 49°
2026-05-07 13:18 10.76375 107.36867 14265 ft 383 kts 43°
2026-05-07 13:18 10.78376 107.38675 14739 ft 386 kts 43°
2026-05-07 13:18 10.80390 107.40490 15209 ft 388 kts 43°
2026-05-07 13:18 10.82414 107.42325 15670 ft 391 kts 43°
2026-05-07 13:19 10.84446 107.44174 16143 ft 393 kts 44°
2026-05-07 13:19 10.86491 107.46039 16624 ft 396 kts 44°
2026-05-07 13:19 10.88550 107.47921 17083 ft 399 kts 44°
2026-05-07 13:19 10.90621 107.49815 17558 ft 402 kts 44°
2026-05-07 13:20 10.92709 107.51726 18041 ft 405 kts 44°
2026-05-07 13:20 10.94811 107.53649 18439 ft 408 kts 44°
2026-05-07 13:20 10.96929 107.55588 18828 ft 411 kts 44°
2026-05-07 13:20 10.99060 107.57539 19236 ft 414 kts 44°
2026-05-07 13:21 11.01206 107.59506 19633 ft 416 kts 43°
2026-05-07 13:21 11.03358 107.61477 20049 ft 419 kts 43°
2026-05-07 13:21 11.05506 107.63445 20442 ft 422 kts 43°
2026-05-07 13:21 11.07693 107.65449 20857 ft 424 kts 43°
2026-05-07 13:22 11.09891 107.67464 21268 ft 427 kts 43°
2026-05-07 13:22 11.12103 107.69493 21674 ft 430 kts 43°
2026-05-07 13:22 11.14333 107.71538 22083 ft 433 kts 43°
2026-05-07 13:22 11.16580 107.73599 22485 ft 436 kts 43°
2026-05-07 13:23 11.18840 107.75673 22888 ft 438 kts 43°
2026-05-07 13:23 11.21106 107.77753 23330 ft 441 kts 43°
2026-05-07 13:23 11.23393 107.79852 23686 ft 444 kts 43°
2026-05-07 13:23 11.25694 107.81964 24012 ft 447 kts 43°
2026-05-07 13:24 11.28013 107.84094 24347 ft 449 kts 43°
2026-05-07 13:24 11.30344 107.86235 24689 ft 452 kts 43°
2026-05-07 13:24 11.32685 107.88386 25038 ft 455 kts 43°
2026-05-07 13:24 11.35040 107.90550 25434 ft 457 kts 43°
2026-05-07 13:25 11.37406 107.92726 25804 ft 460 kts 43°
2026-05-07 13:25 11.39792 107.94919 26206 ft 463 kts 43°
2026-05-07 13:25 11.42189 107.97123 26597 ft 466 kts 43°
2026-05-07 13:25 11.44606 107.99346 26851 ft 469 kts 43°
2026-05-07 13:26 11.47056 108.01601 26913 ft 480 kts 43°
2026-05-07 13:26 11.49564 108.03910 26913 ft 493 kts 43°
2026-05-07 13:26 11.52122 108.06265 26911 ft 497 kts 43°
2026-05-07 13:26 11.54692 108.08630 26911 ft 498 kts 43°
2026-05-07 13:27 11.57268 108.11003 26914 ft 498 kts 42°
2026-05-07 13:27 11.59792 108.13419 26908 ft 498 kts 47°
2026-05-07 13:27 11.62020 108.16125 26925 ft 497 kts 53°
2026-05-07 13:27 11.64084 108.18948 26925 ft 497 kts 54°
2026-05-07 13:28 11.66082 108.21833 26925 ft 497 kts 56°
2026-05-07 13:28 11.68051 108.24735 26925 ft 497 kts 56°
2026-05-07 13:28 11.70015 108.27635 26925 ft 497 kts 56°
2026-05-07 13:28 11.71990 108.30532 26925 ft 497 kts 56°
2026-05-07 13:29 11.73954 108.33430 26935 ft 497 kts 58°
2026-05-07 13:29 11.75509 108.36573 26946 ft 496 kts 69°
2026-05-07 13:29 11.76671 108.39881 26938 ft 496 kts 72°
2026-05-07 13:29 11.77681 108.43201 26939 ft 496 kts 74°
2026-05-07 13:30 11.78628 108.46583 26939 ft 496 kts 75°
2026-05-07 13:30 11.79545 108.49979 26942 ft 496 kts 75°
2026-05-07 13:30 11.80456 108.53367 26941 ft 495 kts 75°
2026-05-07 13:30 11.81371 108.56745 26822 ft 485 kts 75°
2026-05-07 13:31 11.82257 108.59980 26081 ft 465 kts 75°
2026-05-07 13:31 11.83125 108.63124 24772 ft 459 kts 74°
2026-05-07 13:31 11.84000 108.66269 23231 ft 460 kts 74°
2026-05-07 13:31 11.84883 108.69387 21693 ft 455 kts 74°
2026-05-07 13:32 11.85758 108.72467 20246 ft 449 kts 75°
2026-05-07 13:32 11.86621 108.75506 18899 ft 440 kts 75°
2026-05-07 13:32 11.87463 108.78480 17530 ft 431 kts 75°
2026-05-07 13:32 11.88286 108.81393 16086 ft 423 kts 75°
2026-05-07 13:33 11.88821 108.83291 15160 ft 417 kts 75°
2026-05-07 13:33 11.89592 108.86113 13849 ft 408 kts 77°
2026-05-07 13:33 11.90147 108.88905 12794 ft 393 kts 80°
2026-05-07 13:33 11.90616 108.91613 12215 ft 385 kts 81°
2026-05-07 13:34 11.91077 108.94309 11964 ft 385 kts 80°
2026-05-07 13:34 11.91993 108.99646 11899 ft 378 kts 80°
2026-05-07 13:34 11.92447 109.02287 11898 ft 376 kts 80°
2026-05-07 13:35 11.92885 109.04838 11893 ft 349 kts 80°
2026-05-07 13:35 11.93282 109.07147 11891 ft 313 kts 80°
2026-05-07 13:35 11.93647 109.09272 11895 ft 300 kts 81°
2026-05-07 13:35 11.93971 109.11159 11906 ft 297 kts 81°
2026-05-07 13:36 11.94327 109.13236 11883 ft 296 kts 81°
2026-05-07 13:36 11.94681 109.15305 11890 ft 296 kts 81°
2026-05-07 13:36 11.95031 109.17342 11780 ft 283 kts 81°
2026-05-07 13:36 11.95367 109.19303 11025 ft 282 kts 81°
2026-05-07 13:37 11.95577 109.21321 10050 ft 289 kts 92°
2026-05-07 13:37 11.95167 109.23337 9156 ft 292 kts 108°
2026-05-07 13:37 11.94488 109.25280 8347 ft 290 kts 109°
2026-05-07 13:37 11.93786 109.27201 7625 ft 286 kts 109°
2026-05-07 13:38 11.93104 109.29071 7303 ft 281 kts 109°
2026-05-07 13:38 11.92194 109.30834 7042 ft 283 kts 127°
2026-05-07 13:38 11.90696 109.32082 6782 ft 285 kts 153°
2026-05-07 13:38 11.88766 109.32516 6513 ft 288 kts 180°
2026-05-07 13:39 11.86826 109.32037 6232 ft 288 kts 202°
2026-05-07 13:39 11.84960 109.31275 5976 ft 290 kts 200°
2026-05-07 13:39 11.83072 109.30539 5677 ft 289 kts 199°
2026-05-07 13:39 11.81267 109.29662 5222 ft 288 kts 214°
2026-05-07 13:40 11.79951 109.28156 4792 ft 286 kts 244°
2026-05-07 13:40 11.79519 109.26211 4344 ft 282 kts 274°
2026-05-07 13:40 11.80038 109.24348 4070 ft 269 kts 302°
2026-05-07 13:40 11.81074 109.22819 3911 ft 256 kts 305°
2026-05-07 13:41 11.81938 109.21275 3754 ft 246 kts 299°
2026-05-07 13:41 11.82698 109.19740 3580 ft 236 kts 298°
2026-05-07 13:41 11.83491 109.18327 3423 ft 223 kts 314°
2026-05-07 13:41 11.84774 109.17627 3271 ft 204 kts 354°
2026-05-07 13:42 11.86141 109.17590 3149 ft 191 kts
2026-05-07 13:42 11.87380 109.17876 3005 ft 176 kts 25°
2026-05-07 13:42 11.88476 109.18340 2827 ft 167 kts 19°
2026-05-07 13:42 11.89569 109.18681 2563 ft 161 kts 19°
2026-05-07 13:43 11.90618 109.19042 2218 ft 158 kts 19°
2026-05-07 13:43 11.91653 109.19400 1895 ft 157 kts 19°
2026-05-07 13:43 11.92687 109.19755 1597 ft 156 kts 19°
2026-05-07 13:43 11.93703 109.20106 1277 ft 152 kts 19°
2026-05-07 13:44 11.94686 109.20448 1045 ft 145 kts 19°
2026-05-07 13:44 11.95635 109.20778 683 ft 150 kts 18°
2026-05-07 13:44 11.96618 109.21118 452 ft 142 kts 19°
2026-05-07 13:44 11.97565 109.21440 252 ft 143 kts 19°
2026-05-07 13:45 11.98472 109.21750 62 ft 137 kts 19°
2026-05-07 13:45 11.99251 109.22027 44 ft 81 kts 19°
2026-05-07 13:45 11.99499 109.22111 44 ft 1 kts 18°
2026-05-07 13:45 11.99582 109.22141 45 ft 29 kts 20°
2026-05-07 13:46 11.99838 109.22228 45 ft 26 kts 10°
2026-05-07 13:46 11.99946 109.22154 44 ft 20 kts 291°
2026-05-07 13:46 12.00010 109.22003 42 ft 17 kts 309°
2026-05-07 13:46 12.00023 109.21987 42 ft 5 kts 288°
2026-05-07 13:47 12.00032 109.21914 47 ft 15 kts 289°
2026-05-07 13:47 12.00068 109.21796 45 ft 22 kts 287°